Content
SEND FEEDBACK

Daily
Averages
Monthly
Summary
Spain

MAHON, SPAIN


Home > Europe > Spain
Elevation: 269 feet     Latitude: 39 52N     Longitude: 004 14E

WEATHER
 
SELECT A DAY
Number of Records: 245,547;   Date Range: 7/1/96 - 4/18/14
 
SHARE

PRINT THIS DATA

[ ← Previous Day ]
WEATHER ALMANAC - AUGUST 18, 2013
[ Next Day → ]
[ °C ]   °F
Weather ElementAverageHighLow
Temperature78 °F85 °F (2:00 pm)68 °F (6:00 am)
Dewpoint67.8 °F70 °F (8:00 pm)64.4 °F (2:00 pm)
Humidity71.5 %94 % (6:00 am)41 % (2:00 pm)
Barometer30.06 in30.09 in (11:00 am)30.04 in (5:00 am)
Wind Speed4.5 mph10.4 mph (1:00 pm)
Wind Gust18.4 mph (10:30 pm)
Weather ElementAverage
Visibility6.7 mi
Wind DirectionE (91.9 °)

Weather ElementTotal
Precipitation---
Cooling Degree Days11.5 (Base 65)
Growing Degree Days26.5 (Base 50)
Averaged from 44 records on August 18, 2013
WEATHER CONDITIONS BREAKOUT
WIND DIRECTION BREAKOUT
WEATHER BY HOUR - AUGUST 18, 2013
[ °C ]   °F
Local TimeTemperatureDewpointHumidityBarometerVisibilityWind DirectionWind SpeedGust SpeedPrecipitationEventsConditions
12:30 AM73.4 °F68.0 °F83 %30.06 in6.2 miEast (80°)3.5 mphPartly Cloudy
2:00 AM72.0 °F68.0 °F85 %30.06 in7.0 miEast (90°)2.3 mphScattered Clouds
2:00 AM73.4 °F68.0 °F83 %30.06 inVariable2.3 mphClear
5:00 AM69.8 °F66.2 °F88 %30.04 inCalmClear
5:30 AM69.8 °F66.2 °F88 %30.04 inVariable1.2 mphClear
6:00 AM68.0 °F66.2 °F94 %30.04 inCalmClear
6:30 AM69.8 °F66.2 °F88 %30.04 in6.2 miCalmPartly Cloudy
7:00 AM68.0 °F66.2 °F94 %30.04 in6.2 miCalmPartly Cloudy
7:30 AM69.8 °F66.2 °F88 %30.06 in6.2 miCalmPartly Cloudy
8:00 AM72.0 °F68.0 °F85 %30.06 in12.0 miCalmScattered Clouds
8:00 AM71.6 °F68.0 °F88 %30.06 in6.2 miCalmPartly Cloudy
8:30 AM75.2 °F68.0 °F78 %30.06 in6.2 miCalmPartly Cloudy
9:00 AM78.8 °F68.0 °F69 %30.06 in6.2 miCalmPartly Cloudy
9:30 AM78.8 °F66.2 °F65 %30.06 in6.2 miVariable2.3 mphPartly Cloudy
10:00 AM80.6 °F68.0 °F65 %30.06 in6.2 miESE (120°)4.6 mphPartly Cloudy
10:30 AM80.6 °F68.0 °F65 %30.06 in6.2 miVariable4.6 mphPartly Cloudy
11:00 AM80.6 °F68.0 °F65 %30.09 in6.2 miEast (100°)3.5 mphPartly Cloudy
11:30 AM82.4 °F68.0 °F62 %30.09 in6.2 miVariable4.6 mphPartly Cloudy
12:00 PM82.4 °F66.2 °F58 %30.09 in6.2 miESE (120°)5.8 mphPartly Cloudy
12:30 PM82.4 °F68.0 °F62 %30.09 in6.2 miVariable6.9 mphPartly Cloudy
1:00 PM84.2 °F68.0 °F58 %30.09 in6.2 miSouth (170°)10.4 mphPartly Cloudy
1:30 PM84.2 °F68.0 °F58 %30.06 in6.2 miSSE (150°)5.8 mphPartly Cloudy
2:00 PM84.2 °F64.4 °F51 %30.06 in6.2 miSouth (180°)9.2 mphPartly Cloudy
2:00 PM85.0 °F65.0 °F41 %30.07 in15.0 miSouth (180°)9.2 mphScattered Clouds
2:30 PM84.2 °F64.4 °F51 %30.06 in6.2 miSouth (170°)9.2 mphPartly Cloudy
3:00 PM84.2 °F64.4 °F51 %30.06 in6.2 miSouth (180°)8.1 mphPartly Cloudy
3:30 PM84.2 °F66.2 °F55 %30.06 in6.2 miSouth (170°)9.2 mphPartly Cloudy
4:00 PM84.2 °F68.0 °F58 %30.06 in6.2 miSouth (180°)8.1 mphPartly Cloudy
4:30 PM82.4 °F68.0 °F62 %30.06 in6.2 miSSE (160°)10.4 mphPartly Cloudy
5:00 PM82.4 °F69.8 °F66 %30.06 in6.2 miSouth (190°)8.1 mphPartly Cloudy
5:30 PM82.4 °F68.0 °F62 %30.06 in6.2 miSouth (190°)6.9 mphPartly Cloudy
6:00 PM82.4 °F68.0 °F62 %30.06 in6.2 miSouth (190°)6.9 mphPartly Cloudy
6:30 PM80.6 °F68.0 °F65 %30.06 in6.2 miSouth (180°)6.9 mphPartly Cloudy
7:00 PM80.6 °F69.8 °F70 %30.04 in6.2 miSouth (190°)4.6 mphPartly Cloudy
7:30 PM78.8 °F69.8 °F74 %30.04 in6.2 miSouth (180°)6.9 mphPartly Cloudy
8:00 PM79.0 °F70.0 °F67 %30.04 in12.0 miSouth (170°)9.2 mphScattered Clouds
8:00 PM78.8 °F69.8 °F74 %30.04 in6.2 miSouth (170°)6.9 mphPartly Cloudy
8:30 PM77.0 °F69.8 °F78 %30.06 in6.2 miSouth (170°)4.6 mphPartly Cloudy
9:00 PM77.0 °F69.8 °F78 %30.06 in6.2 miVariable2.3 mphPartly Cloudy
9:30 PM77.0 °F69.8 °F78 %30.06 in6.2 miVariable2.3 mph15.0 mphPartly Cloudy
10:00 PM75.2 °F69.8 °F83 %30.06 in6.2 miSE (140°)3.5 mphPartly Cloudy
10:30 PM75.2 °F69.8 °F83 %30.06 in6.2 miVariable2.3 mph18.4 mphPartly Cloudy
11:00 PM75.2 °F69.8 °F83 %30.06 in6.2 miSE (130°)3.5 mphPartly Cloudy
11:30 PM75.2 °F69.8 °F83 %30.06 in6.2 miVariable1.2 mphPartly Cloudy
Hourly data recorded from LEMH, located 0.40 miles away from Mahon, Spain







STORIES FROM OUR PARTNERS